Flag for U.S.A. Weather past 2 weeks in Paramus, New Jersey, U.S.A.

Now
72 °F

Sunny.


Feels Like: 74 °F
Forecast: 65 / 89 °F
Wind: 3 mph from South

Location: Teterboro Airport

Current Time: Aug 27, 2014 at 8:52:45 AM

Latest Report: Aug 27, 2014 at 7:51 AM


Visibility: 10 mi

Pressure: 30.03 "Hg

Humidity: 73%

Dew point: 63 °F

Location of ParamusLocation

Historic Weather in Paramus — Graph

°F

Paramus temperature yesterday

Maximum temperature yesterday: 87 °F (at 1:51 PM)
Minimum temperature yesterday: 66 °F (at 5:51 AM)
Average temperature yesterday: 77 °F

Past Weeks' High & Low Weather Summary

 TemperatureHumidityPressure
High87 °F (Aug 25, 1:51 PM)90% (Aug 13, 2:51 AM)30.17 "Hg (Aug 13, 2:51 AM)
Low59 °F (Aug 15, 4:51 AM)31% (Aug 16, 12:51 PM)29.64 "Hg (Aug 13, 4:51 PM)
Average73 °F61%29.96 "Hg
* Reported Aug 12 6:51 AM — Aug 27 6:51 AM, Paramus, Weather by CustomWeather, © 2014

Note: Actual official high and low records may vary slightly from our data, if they occured in-between our weather recording intervals... More about our weather records

Advertising

Paramus weather history for previous 24 hours

 ConditionsComfort  
Time TempWeatherWind HumidityBarometerVisibility
6:51 AM
Aug 27
67 °FFog.No wind81%30.02 "Hg10 mi
5:51 AM66 °FClear.No wind81%30.02 "Hg10 mi
4:51 AM67 °FClear.No wind79%30.02 "Hg10 mi
3:51 AM68 °FClear.No wind76%30.02 "Hg10 mi
2:51 AM70 °FClear.No wind71%30.03 "Hg10 mi
1:51 AM69 °FClear.No wind70%30.05 "Hg10 mi
12:51 AM71 °FClear.3 mph71%30.06 "Hg10 mi
11:51 PM
Aug 26
73 °FClear.7 mph66%30.07 "Hg10 mi
10:51 PM73 °FClear.7 mph71%30.09 "Hg10 mi
9:51 PM75 °FClear.6 mph66%30.09 "Hg10 mi
8:51 PM75 °FClear.5 mph60%30.08 "Hg10 mi
7:51 PM78 °FSunny.7 mph54%30.06 "Hg10 mi
6:51 PM81 °FSunny.8 mph51%30.06 "Hg10 mi
5:51 PM84 °FSunny.9 mph46%30.06 "Hg10 mi
4:51 PM86 °FPassing clouds.9 mph43%30.06 "Hg10 mi
3:51 PM87 °FSunny.12 mph45%30.08 "Hg10 mi
2:51 PM86 °FSunny.8 mph46%30.10 "Hg10 mi
1:51 PM87 °FSunny.3 mph39%30.11 "Hg10 mi
12:51 PM86 °FSunny.6 mph43%30.13 "Hg10 mi
11:51 AM85 °FPassing clouds.5 mph46%30.14 "Hg10 mi
10:51 AM82 °FSunny.No wind53%30.15 "Hg10 mi
9:51 AM80 °FSunny.No wind56%30.16 "Hg6 mi
8:51 AM76 °FSunny.No wind69%30.16 "Hg10 mi
Weather by CustomWeather, © 2014

See weather overviewHow to use our weather pages